IBE14N FSIA-HAAB

Flight info

Callsign IBE14N
Flight time N/A
Altitude 36000
Route UNBED1B UNBED T154 XABAL DCT MOGUD/N0454F370 UM313 EGLOM/N0453F380 UM313 MAV UQ555 IMKIT IMKIT3B
Aircraft A320/M-SDE3FGHIRWY/LB1

Departure

Time 2026-05-04 13:14
Airport Seychelles International Airport (FSIA)

Arrival

Time N/A
Airport Addis Ababa Bole International Airport (HAAB)
Time Latitude Longitude Altitude Speed Heading
2026-05-04 13:01 -4.67053 55.51192 22 ft 0 kts 214°
2026-05-04 13:06 -4.67046 55.51197 23 ft 2 kts 214°
2026-05-04 13:06 -4.67033 55.51206 25 ft 2 kts 228°
2026-05-04 13:06 -4.67024 55.51220 22 ft 2 kts 263°
2026-05-04 13:07 -4.67025 55.51236 22 ft 1 kts 295°
2026-05-04 13:10 -4.67010 55.51216 23 ft 19 kts 315°
2026-05-04 13:10 -4.66858 55.51160 25 ft 22 kts 314°
2026-05-04 13:10 -4.66767 55.51065 25 ft 16 kts 333°
2026-05-04 13:11 -4.66721 55.51068 27 ft 0 kts 31°
2026-05-04 13:12 -4.66720 55.51068 27 ft 1 kts 31°
2026-05-04 13:13 -4.66697 55.51150 29 ft 20 kts 123°
2026-05-04 13:13 -4.66768 55.51243 26 ft 24 kts 124°
2026-05-04 13:13 -4.67017 55.51592 23 ft 96 kts 123°
2026-05-04 13:13 -4.67503 55.52288 25 ft 149 kts 126°
2026-05-04 13:14 -4.68157 55.53208 350 ft 169 kts 125°
2026-05-04 13:14 -4.68834 55.54175 980 ft 169 kts 126°
2026-05-04 13:14 -4.69513 55.55148 1613 ft 173 kts 126°
2026-05-04 13:14 -4.70230 55.56173 2030 ft 187 kts 126°
2026-05-04 13:15 -4.71007 55.57284 2424 ft 202 kts 126°
2026-05-04 13:15 -4.71843 55.58479 2800 ft 217 kts 126°
2026-05-04 13:15 -4.72739 55.59763 3186 ft 233 kts 126°
2026-05-04 13:15 -4.73442 55.61272 3640 ft 247 kts 96°
2026-05-04 13:16 -4.73122 55.62944 4309 ft 250 kts 58°
2026-05-04 13:16 -4.71853 55.64096 4972 ft 251 kts 21°
2026-05-04 13:16 -4.70142 55.64260 5611 ft 252 kts 344°
2026-05-04 13:16 -4.68670 55.63364 6260 ft 252 kts 308°
2026-05-04 13:17 -4.67677 55.61903 6849 ft 256 kts 301°
2026-05-04 13:17 -4.66734 55.60374 7490 ft 260 kts 301°
2026-05-04 13:17 -4.65756 55.58792 7969 ft 275 kts 301°
2026-05-04 13:17 -4.64708 55.57138 8521 ft 285 kts 302°
2026-05-04 13:18 -4.63620 55.55462 9261 ft 288 kts 302°
2026-05-04 13:18 -4.62503 55.53778 9989 ft 291 kts 303°
2026-05-04 13:18 -4.61348 55.52057 10415 ft 306 kts 303°
2026-05-04 13:18 -4.60126 55.50242 10743 ft 322 kts 303°
2026-05-04 13:19 -4.58837 55.48334 11054 ft 338 kts 303°
2026-05-04 13:19 -4.57512 55.46347 11548 ft 346 kts 300°
2026-05-04 13:19 -4.56365 55.44217 12188 ft 349 kts 297°
2026-05-04 13:19 -4.55243 55.42090 12838 ft 351 kts 297°
2026-05-04 13:20 -4.54093 55.39914 13484 ft 354 kts 297°
2026-05-04 13:20 -4.52937 55.37725 14060 ft 357 kts 297°
2026-05-04 13:20 -4.51768 55.35511 14591 ft 361 kts 297°
2026-05-04 13:20 -4.50590 55.33283 15115 ft 365 kts 297°
2026-05-04 13:21 -4.49394 55.31025 15630 ft 368 kts 297°
2026-05-04 13:21 -4.48186 55.28747 16145 ft 372 kts 297°
2026-05-04 13:21 -4.46969 55.26444 16662 ft 375 kts 297°
2026-05-04 13:21 -4.45744 55.24122 17155 ft 379 kts 297°
2026-05-04 13:22 -4.44503 55.21775 17661 ft 382 kts 297°
2026-05-04 13:22 -4.43251 55.19412 18162 ft 386 kts 297°
2026-05-04 13:22 -4.41986 55.17026 18587 ft 389 kts 297°
2026-05-04 13:22 -4.40711 55.14622 19040 ft 392 kts 298°
2026-05-04 13:23 -4.39419 55.12205 19483 ft 395 kts 300°
2026-05-04 13:23 -4.37837 55.09951 19932 ft 398 kts 310°
2026-05-04 13:23 -4.35984 55.07881 20369 ft 400 kts 311°
2026-05-04 13:23 -4.34120 55.05800 20811 ft 403 kts 311°
2026-05-04 13:24 -4.32241 55.03694 21254 ft 406 kts 311°
2026-05-04 13:24 -4.30355 55.01578 21691 ft 409 kts 311°
2026-05-04 13:24 -4.28455 54.99446 22119 ft 412 kts 311°
2026-05-04 13:25 -4.24635 54.95177 22938 ft 417 kts 311°
2026-05-04 13:25 -4.22689 54.93005 23337 ft 420 kts 311°
2026-05-04 13:25 -4.20736 54.90827 23683 ft 422 kts 311°
2026-05-04 13:25 -4.18769 54.88632 24009 ft 424 kts 311°
2026-05-04 13:26 -4.16794 54.86426 24337 ft 426 kts 312°
2026-05-04 13:26 -4.14813 54.84212 24661 ft 428 kts 312°
2026-05-04 13:26 -4.12821 54.81984 24974 ft 430 kts 312°
2026-05-04 13:26 -4.10823 54.79746 25280 ft 432 kts 312°
2026-05-04 13:27 -4.08813 54.77495 25583 ft 434 kts 312°
2026-05-04 13:27 -4.06794 54.75236 25875 ft 436 kts 312°
2026-05-04 13:27 -4.04764 54.72969 26173 ft 438 kts 312°
2026-05-04 13:27 -4.02724 54.70692 26448 ft 440 kts 312°
2026-05-04 13:28 -4.00677 54.68405 26727 ft 442 kts 312°
2026-05-04 13:28 -3.98618 54.66102 27002 ft 444 kts 312°
2026-05-04 13:28 -3.96552 54.63794 27279 ft 446 kts 312°
2026-05-04 13:28 -3.94476 54.61475 27544 ft 448 kts 312°
2026-05-04 13:29 -3.92388 54.59141 27797 ft 450 kts 312°
2026-05-04 13:29 -3.90295 54.56801 28061 ft 452 kts 312°
2026-05-04 13:29 -3.88190 54.54450 28318 ft 454 kts 312°
2026-05-04 13:29 -3.86077 54.52091 28574 ft 456 kts 312°
2026-05-04 13:30 -3.83951 54.49717 28810 ft 458 kts 312°
2026-05-04 13:30 -3.81817 54.47334 29050 ft 460 kts 313°
2026-05-04 13:30 -3.79680 54.44947 29277 ft 462 kts 313°
2026-05-04 13:30 -3.77527 54.42546 29501 ft 464 kts 313°
2026-05-04 13:31 -3.75369 54.40140 29733 ft 466 kts 313°
2026-05-04 13:31 -3.73198 54.37722 29932 ft 468 kts 313°
2026-05-04 13:31 -3.71019 54.35295 30109 ft 469 kts 313°
2026-05-04 13:31 -3.68836 54.32864 30279 ft 471 kts 313°
2026-05-04 13:32 -3.66641 54.30418 30446 ft 472 kts 313°
2026-05-04 13:32 -3.64444 54.27971 30613 ft 474 kts 313°
2026-05-04 13:32 -3.62236 54.25509 30779 ft 475 kts 313°
2026-05-04 13:32 -3.60031 54.23046 31006 ft 475 kts 313°
2026-05-04 13:33 -3.57859 54.20619 31235 ft 474 kts 313°
2026-05-04 13:33 -3.55655 54.18155 31472 ft 474 kts 313°
2026-05-04 13:33 -3.53458 54.15700 31709 ft 474 kts 313°
2026-05-04 13:33 -3.51256 54.13246 31934 ft 474 kts 313°
2026-05-04 13:34 -3.49055 54.10792 32162 ft 474 kts 313°
2026-05-04 13:34 -3.46852 54.08335 32393 ft 474 kts 313°
2026-05-04 13:34 -3.44650 54.05880 32627 ft 474 kts 313°
2026-05-04 13:34 -3.42446 54.03426 32857 ft 474 kts 313°
2026-05-04 13:35 -3.40245 54.00972 33103 ft 474 kts 313°
2026-05-04 13:35 -3.35852 53.96064 33580 ft 473 kts 313°
2026-05-04 13:35 -3.33656 53.93612 33830 ft 473 kts 313°
2026-05-04 13:36 -3.31455 53.91163 34055 ft 473 kts 313°
2026-05-04 13:36 -3.29255 53.88715 34275 ft 472 kts 313°
2026-05-04 13:36 -3.27062 53.86274 34493 ft 472 kts 314°
2026-05-04 13:36 -3.24867 53.83828 34708 ft 471 kts 313°
2026-05-04 13:37 -3.22680 53.81388 34917 ft 471 kts 313°
2026-05-04 13:37 -3.20495 53.78950 35122 ft 471 kts 314°
2026-05-04 13:37 -3.18310 53.76513 35327 ft 470 kts 314°
2026-05-04 13:37 -3.16861 53.74900 35456 ft 470 kts 314°
2026-05-04 13:38 -3.13941 53.71652 35717 ft 469 kts 314°
2026-05-04 13:38 -3.11760 53.69223 35861 ft 469 kts 314°
2026-05-04 13:38 -3.09581 53.66800 35900 ft 468 kts 314°
2026-05-04 13:39 -3.05272 53.61935 35898 ft 468 kts 309°
2026-05-04 13:39 -3.01745 53.56452 35899 ft 469 kts 303°
2026-05-04 13:40 -2.98312 53.50900 35900 ft 469 kts 303°
2026-05-04 13:40 -2.94862 53.45357 35899 ft 469 kts 303°
2026-05-04 13:41 -2.91440 53.39858 35904 ft 469 kts 303°
2026-05-04 13:41 -2.88013 53.34315 35904 ft 469 kts 303°
2026-05-04 13:42 -2.82869 53.25998 35906 ft 468 kts 303°
2026-05-04 13:42 -2.79435 53.20465 35903 ft 468 kts 303°
2026-05-04 13:43 -2.76006 53.14934 35905 ft 468 kts 303°
2026-05-04 13:43 -2.72569 53.09405 35910 ft 468 kts 303°
2026-05-04 13:44 -2.69137 53.03879 35907 ft 468 kts 303°
2026-05-04 13:44 -2.66283 52.99291 35908 ft 467 kts 303°
2026-05-04 13:45 -2.62857 52.93765 35909 ft 467 kts 303°
2026-05-04 13:45 -2.59439 52.88237 35908 ft 467 kts 303°
2026-05-04 13:46 -2.56021 52.82703 35908 ft 467 kts 303°
2026-05-04 13:46 -2.52640 52.77156 35906 ft 467 kts 302°
2026-05-04 13:47 -2.49274 52.71602 35903 ft 467 kts 303°
2026-05-04 13:47 -2.45903 52.66052 35900 ft 467 kts 303°
2026-05-04 13:48 -2.42533 52.60502 35903 ft 467 kts 302°
2026-05-04 13:48 -2.39181 52.54995 35901 ft 467 kts 303°
2026-05-04 13:49 -2.35804 52.49447 35903 ft 467 kts 303°
2026-05-04 13:49 -2.32437 52.43900 35905 ft 467 kts 303°
2026-05-04 13:50 -2.29062 52.38357 35905 ft 467 kts 303°
2026-05-04 13:50 -2.25683 52.32815 35901 ft 467 kts 303°
2026-05-04 13:51 -2.22308 52.27275 35903 ft 467 kts 303°
2026-05-04 13:51 -2.18934 52.21731 35901 ft 467 kts 303°
2026-05-04 13:52 -2.13869 52.13412 35902 ft 467 kts 303°
2026-05-04 13:53 -2.10495 52.07870 35901 ft 467 kts 303°
2026-05-04 13:53 -2.07120 52.02320 35896 ft 467 kts 303°
2026-05-04 13:54 -2.02057 51.94005 35895 ft 467 kts 303°
2026-05-04 13:55 -1.97013 51.85725 35900 ft 467 kts 303°
2026-05-04 13:55 -1.91947 51.77413 35900 ft 467 kts 303°
2026-05-04 13:56 -1.88568 51.71880 35899 ft 466 kts 303°
2026-05-04 13:57 -1.83508 51.63569 35900 ft 466 kts 303°
2026-05-04 13:58 -1.76760 51.52513 35900 ft 466 kts 303°
2026-05-04 13:58 -1.71714 51.44222 35899 ft 465 kts 303°
2026-05-04 13:59 -1.68352 51.38694 35896 ft 465 kts 303°
2026-05-04 14:00 -1.63304 51.30418 35900 ft 465 kts 303°
2026-05-04 14:00 -1.58253 51.22156 35897 ft 464 kts 303°
2026-05-04 14:01 -1.54901 51.16649 35895 ft 464 kts 303°
2026-05-04 14:02 -1.49863 51.08388 35900 ft 464 kts 303°
2026-05-04 14:02 -1.46528 51.02920 35902 ft 464 kts 303°
2026-05-04 14:03 -1.43175 50.97419 35904 ft 463 kts 303°
2026-05-04 14:03 -1.39818 50.91927 35894 ft 463 kts 303°
2026-05-04 14:04 -1.34792 50.83687 35890 ft 463 kts 303°
2026-05-04 14:04 -1.31446 50.78191 35888 ft 463 kts 303°
2026-05-04 14:05 -1.26415 50.69959 35886 ft 463 kts 303°
2026-05-04 14:06 -1.23066 50.64472 35888 ft 462 kts 303°
2026-05-04 14:06 -1.19724 50.58981 35888 ft 462 kts 303°
2026-05-04 14:07 -1.16376 50.53490 35897 ft 463 kts 303°
2026-05-04 14:07 -1.13022 50.48010 35907 ft 462 kts 303°
2026-05-04 14:08 -1.09669 50.42525 35900 ft 462 kts 303°
2026-05-04 14:08 -1.06346 50.37079 35894 ft 462 kts 303°
2026-05-04 14:09 -1.01325 50.28857 35907 ft 462 kts 303°
2026-05-04 14:10 -0.96304 50.20623 35906 ft 462 kts 303°
2026-05-04 14:10 -0.92959 50.15139 35905 ft 462 kts 303°
2026-05-04 14:11 -0.89609 50.09652 35906 ft 462 kts 303°
2026-05-04 14:11 -0.84582 50.01427 35902 ft 463 kts 303°
2026-05-04 14:12 -0.81228 49.95941 35904 ft 462 kts 303°
2026-05-04 14:13 -0.76211 49.87713 35901 ft 462 kts 303°
2026-05-04 14:13 -0.72857 49.82226 35902 ft 462 kts 303°
2026-05-04 14:14 -0.69501 49.76740 35907 ft 462 kts 303°
2026-05-04 14:14 -0.64482 49.68507 35906 ft 463 kts 303°
2026-05-04 14:15 -0.57770 49.57528 35915 ft 463 kts 303°
2026-05-04 14:16 -0.52738 49.49288 35915 ft 463 kts 302°
2026-05-04 14:17 -0.47710 49.41046 35917 ft 463 kts 302°
2026-05-04 14:18 -0.42704 49.32840 35913 ft 463 kts 303°
2026-05-04 14:19 -0.35991 49.21864 35911 ft 463 kts 302°
2026-05-04 14:19 -0.32634 49.16371 35912 ft 463 kts 302°
2026-05-04 14:20 -0.29281 49.10878 35913 ft 463 kts 302°
2026-05-04 14:20 -0.25929 49.05388 35907 ft 463 kts 302°
2026-05-04 14:21 -0.20901 48.97153 35907 ft 463 kts 302°
2026-05-04 14:21 -0.17548 48.91670 35907 ft 463 kts 303°
2026-05-04 14:22 -0.14192 48.86186 35911 ft 463 kts 302°
2026-05-04 14:22 -0.10839 48.80700 35911 ft 462 kts 302°
2026-05-04 14:23 -0.05820 48.72481 35904 ft 462 kts 302°
2026-05-04 14:24 -0.02477 48.66999 35904 ft 462 kts 302°
2026-05-04 14:24 0.00851 48.61559 35904 ft 462 kts 303°
2026-05-04 14:25 0.04193 48.56081 35909 ft 462 kts 302°
2026-05-04 14:25 0.09212 48.47866 35910 ft 461 kts 302°
2026-05-04 14:26 0.12555 48.42395 35911 ft 461 kts 302°
2026-05-04 14:26 0.15901 48.36924 35913 ft 461 kts 303°
2026-05-04 14:27 0.19245 48.31454 35919 ft 461 kts 303°
2026-05-04 14:27 0.22584 48.25986 35924 ft 461 kts 302°
2026-05-04 14:28 0.25915 48.20523 35920 ft 460 kts 303°
2026-05-04 14:28 0.29250 48.15064 35916 ft 460 kts 303°
2026-05-04 14:29 0.35918 48.04152 35916 ft 460 kts 302°
2026-05-04 14:30 0.39227 47.98728 35914 ft 460 kts 303°
2026-05-04 14:31 0.44226 47.90555 35918 ft 460 kts 303°
2026-05-04 14:32 0.50879 47.79658 35917 ft 459 kts 303°
2026-05-04 14:32 0.54203 47.74215 35916 ft 459 kts 303°
2026-05-04 14:33 0.57532 47.68775 35916 ft 459 kts 303°
2026-05-04 14:33 0.60856 47.63331 35917 ft 459 kts 303°
2026-05-04 14:34 0.64169 47.57889 35916 ft 458 kts 303°
2026-05-04 14:34 0.67487 47.52452 35916 ft 458 kts 303°
2026-05-04 14:35 0.70818 47.47027 35914 ft 458 kts 303°
2026-05-04 14:35 0.74123 47.41634 35913 ft 458 kts 303°
2026-05-04 14:36 0.77411 47.36189 35913 ft 458 kts 302°
2026-05-04 14:36 0.80653 47.30716 35911 ft 458 kts 302°
2026-05-04 14:37 0.83898 47.25244 35911 ft 457 kts 302°
2026-05-04 14:37 0.87160 47.19783 35911 ft 457 kts 302°
2026-05-04 14:38 0.90418 47.14329 35910 ft 457 kts 302°
2026-05-04 14:38 0.93124 47.09796 35909 ft 457 kts 302°
2026-05-04 14:39 0.96376 47.04333 35914 ft 457 kts 302°
2026-05-04 14:39 0.99633 46.98877 35919 ft 457 kts 302°
2026-05-04 14:40 1.04518 46.90697 35922 ft 457 kts 302°
2026-05-04 14:40 1.07773 46.85241 35922 ft 457 kts 302°
2026-05-04 14:41 1.11020 46.79790 35919 ft 456 kts 302°
2026-05-04 14:42 1.17521 46.68895 35919 ft 456 kts 302°
2026-05-04 14:42 1.20766 46.63456 35916 ft 456 kts 302°
2026-05-04 14:43 1.24009 46.58009 35911 ft 456 kts 302°
2026-05-04 14:43 1.27254 46.52559 35908 ft 456 kts 302°
2026-05-04 14:44 1.30506 46.47117 35911 ft 456 kts 302°
2026-05-04 14:44 1.33735 46.41712 35908 ft 456 kts 302°
2026-05-04 14:45 1.36980 46.36265 35913 ft 456 kts 302°
2026-05-04 14:45 1.40227 46.30814 35917 ft 456 kts 302°
2026-05-04 14:46 1.43475 46.25365 35922 ft 456 kts 302°
2026-05-04 14:46 1.46727 46.19917 35924 ft 456 kts 302°
2026-05-04 14:47 1.49967 46.14475 35928 ft 456 kts 302°
2026-05-04 14:47 1.53207 46.09037 35926 ft 455 kts 302°
2026-05-04 14:48 1.56445 46.03605 35924 ft 455 kts 302°
2026-05-04 14:48 1.59680 45.98177 35924 ft 454 kts 302°
2026-05-04 14:49 1.62915 45.92758 35925 ft 453 kts 302°
2026-05-04 14:49 1.66141 45.87348 35923 ft 453 kts 302°
2026-05-04 14:50 1.69355 45.81938 35921 ft 453 kts 302°
2026-05-04 14:50 1.72571 45.76534 35918 ft 452 kts 302°
2026-05-04 14:51 1.75765 45.71173 35922 ft 452 kts 302°
2026-05-04 14:51 1.78980 45.65786 35921 ft 451 kts 302°
2026-05-04 14:52 1.82196 45.60395 35920 ft 451 kts 302°
2026-05-04 14:52 1.85405 45.55000 35916 ft 451 kts 302°
2026-05-04 14:53 1.88616 45.49608 35906 ft 451 kts 302°
2026-05-04 14:53 1.91832 45.44221 35894 ft 452 kts 302°
2026-05-04 14:54 1.95043 45.38823 35887 ft 452 kts 302°
2026-05-04 14:54 1.98250 45.33419 35888 ft 452 kts 302°
2026-05-04 14:55 2.01457 45.28010 35885 ft 452 kts 302°
2026-05-04 14:55 2.04584 45.22548 35889 ft 453 kts 301°
2026-05-04 14:56 2.07658 45.17044 35906 ft 453 kts 301°
2026-05-04 14:56 2.10719 45.11589 35902 ft 453 kts 301°
2026-05-04 14:57 2.13821 45.06112 35905 ft 453 kts 301°
2026-05-04 14:57 2.16929 45.00633 35908 ft 453 kts 301°
2026-05-04 14:58 2.20035 44.95142 35910 ft 454 kts 301°
2026-05-04 14:58 2.23142 44.89644 35914 ft 454 kts 301°
2026-05-04 14:59 2.26252 44.84149 35909 ft 454 kts 301°
2026-05-04 15:00 2.30925 44.75891 35914 ft 455 kts 301°
2026-05-04 15:00 2.34045 44.70385 35919 ft 455 kts 301°
2026-05-04 15:01 2.38707 44.62118 35916 ft 455 kts 301°
2026-05-04 15:01 2.41826 44.56612 35924 ft 455 kts 301°
2026-05-04 15:02 2.44943 44.51105 35918 ft 455 kts 301°
2026-05-04 15:02 2.48033 44.45639 35911 ft 455 kts 301°
2026-05-04 15:03 2.51152 44.40134 35914 ft 455 kts 301°
2026-05-04 15:03 2.54264 44.34625 35919 ft 455 kts 301°
2026-05-04 15:04 2.57378 44.29103 35924 ft 456 kts 301°
2026-05-04 15:04 2.60488 44.23583 35935 ft 456 kts 301°
2026-05-04 15:05 2.63608 44.18062 35932 ft 456 kts 301°
2026-05-04 15:05 2.66726 44.12545 35931 ft 456 kts 301°
2026-05-04 15:06 2.69849 44.07018 35924 ft 457 kts 301°
2026-05-04 15:07 2.74541 43.98718 35924 ft 457 kts 301°
2026-05-04 15:07 2.77668 43.93178 35924 ft 457 kts 301°
2026-05-04 15:08 2.80791 43.87635 35920 ft 457 kts 301°
2026-05-04 15:08 2.83914 43.82092 35918 ft 458 kts 301°
2026-05-04 15:09 2.87028 43.76584 35917 ft 458 kts 301°
2026-05-04 15:09 2.90163 43.71042 35925 ft 458 kts 301°
2026-05-04 15:10 2.94860 43.62711 35934 ft 458 kts 300°
2026-05-04 15:11 2.99551 43.54385 35937 ft 458 kts 301°
2026-05-04 15:11 3.02689 43.48834 35932 ft 458 kts 301°
2026-05-04 15:12 3.05820 43.43285 35928 ft 458 kts 300°
2026-05-04 15:12 3.08943 43.37734 35924 ft 458 kts 300°
2026-05-04 15:13 3.12070 43.32181 35917 ft 458 kts 300°
2026-05-04 15:13 3.15198 43.26630 35915 ft 458 kts 300°
2026-05-04 15:14 3.18326 43.21079 35905 ft 458 kts 300°
2026-05-04 15:14 3.21456 43.15521 35904 ft 458 kts 300°
2026-05-04 15:15 3.24589 43.09964 35900 ft 458 kts 300°
2026-05-04 15:15 3.27720 43.04410 35896 ft 458 kts 301°
2026-05-04 15:16 3.32379 42.96105 35891 ft 458 kts 300°
2026-05-04 15:17 3.37056 42.87751 35896 ft 459 kts 300°
2026-05-04 15:17 3.41760 42.79407 35896 ft 459 kts 301°
2026-05-04 15:18 3.44903 42.73841 35896 ft 459 kts 300°
2026-05-04 15:19 3.49604 42.65494 35884 ft 459 kts 300°
2026-05-04 15:19 3.54296 42.57130 35877 ft 459 kts 300°
2026-05-04 15:20 3.57431 42.51563 35878 ft 459 kts 300°
2026-05-04 15:20 3.60565 42.45996 35877 ft 459 kts 300°
2026-05-04 15:21 3.63696 42.40416 35874 ft 460 kts 300°
2026-05-04 15:22 3.68397 42.32053 35870 ft 460 kts 300°
2026-05-04 15:22 3.73102 42.23681 35873 ft 460 kts 300°
2026-05-04 15:23 3.76237 42.18100 35869 ft 460 kts 300°
2026-05-04 15:23 3.79371 42.12515 35870 ft 460 kts 300°
2026-05-04 15:24 3.85621 42.01376 35867 ft 461 kts 300°
2026-05-04 15:25 3.88766 41.95790 35868 ft 460 kts 300°
2026-05-04 15:26 3.93472 41.87401 35866 ft 461 kts 301°
2026-05-04 15:26 3.98876 41.79450 35871 ft 460 kts 306°
2026-05-04 15:27 4.04351 41.71536 35877 ft 461 kts 306°
2026-05-04 15:28 4.09833 41.63627 35885 ft 461 kts 306°
2026-05-04 15:29 4.15317 41.55718 35898 ft 461 kts 306°
2026-05-04 15:30 4.27500 41.38150 35904 ft 460 kts 306°
2026-05-04 15:31 4.32977 41.30239 35908 ft 460 kts 306°
2026-05-04 15:32 4.42091 41.17066 35911 ft 460 kts 306°
2026-05-04 15:34 4.51214 41.03913 35923 ft 460 kts 306°
2026-05-04 15:34 4.56669 40.96010 35929 ft 459 kts 306°
2026-05-04 15:35 4.62123 40.88130 35930 ft 459 kts 306°
2026-05-04 15:36 4.67554 40.80278 35931 ft 459 kts 306°
2026-05-04 15:36 4.71188 40.75026 35931 ft 458 kts 306°
2026-05-04 15:37 4.74835 40.69787 35934 ft 458 kts 306°
2026-05-04 15:37 4.78479 40.64545 35946 ft 458 kts 306°
2026-05-04 15:38 4.82103 40.59302 35946 ft 457 kts 306°
2026-05-04 15:38 4.85719 40.54056 35940 ft 457 kts 306°
2026-05-04 15:39 4.89341 40.48814 35944 ft 457 kts 306°
2026-05-04 15:40 4.94778 40.40960 35934 ft 457 kts 306°
2026-05-04 15:40 4.98390 40.35730 35931 ft 457 kts 306°
2026-05-04 15:41 5.02003 40.30491 35933 ft 456 kts 306°
2026-05-04 15:41 5.05586 40.25294 35940 ft 456 kts 306°
2026-05-04 15:42 5.09204 40.20067 35941 ft 456 kts 306°
2026-05-04 15:42 5.12826 40.14834 35949 ft 457 kts 306°
2026-05-04 15:43 5.16439 40.09596 35954 ft 456 kts 305°
2026-05-04 15:43 5.20046 40.04353 35953 ft 457 kts 306°
2026-05-04 15:44 5.23660 39.99115 35959 ft 457 kts 306°
2026-05-04 15:44 5.27289 39.93866 35970 ft 458 kts 306°
2026-05-04 15:45 5.30922 39.88608 35967 ft 458 kts 306°
2026-05-04 15:45 5.34548 39.83346 35972 ft 459 kts 305°
2026-05-04 15:46 5.38150 39.78104 35975 ft 459 kts 305°